This is the latest recevied weather packets stored in our database for station/object EB5AGF-13. If no packets are shown the sender has not sent any weather packets the latest 10 day(s).
| Time | Temp. | Humidity | Pressure | Rain* | Wind** | Luminosity | Snow |
|---|---|---|---|---|---|---|---|
| 1777627964 | 20° C | 81% | 1018.1 hPa | 0 mm | 1.34 m/s, 26° | 99 W/m² | - |
| 1777627661 | 20° C | 81% | 1018.1 hPa | 0 mm | 0.89 m/s, 26° | 95 W/m² | - |
| 1777627356 | 20° C | 81% | 1018.1 hPa | 0 mm | 1.79 m/s, 94° | 86 W/m² | - |
| 1777627052 | 20° C | 80% | 1018 hPa | 0 mm | 1.34 m/s, 358° | 85 W/m² | - |
| 1777626748 | 20.56° C | 80% | 1018 hPa | 0 mm | 0.45 m/s, 344° | 95 W/m² | - |
| 1777626445 | 20° C | 80% | 1017.7 hPa | 0 mm | 1.34 m/s, 98° | 96 W/m² | - |
| 1777626140 | 20.56° C | 79% | 1017.8 hPa | 0 mm | 1.79 m/s, 69° | 99 W/m² | - |
| 1777625836 | 20.56° C | 79% | 1017.7 hPa | 0 mm | 1.79 m/s, 159° | 124 W/m² | - |
| 1777625532 | 20° C | 79% | 1017.4 hPa | 0 mm | 1.34 m/s, 42° | 118 W/m² | - |
| 1777625229 | 20.56° C | 79% | 1017.4 hPa | 0 mm | 1.34 m/s, 63° | 73 W/m² | - |
| 1777624924 | 20.56° C | 78% | 1017.4 hPa | 0 mm | 1.34 m/s, 58° | 104 W/m² | - |
| 1777624620 | 20.56° C | 78% | 1017.4 hPa | 0 mm | 0.45 m/s, 14° | 123 W/m² | - |
| 1777624316 | 20.56° C | 78% | 1017.2 hPa | 0 mm | 0.45 m/s, 325° | 131 W/m² | - |
| 1777624013 | 20.56° C | 78% | 1017 hPa | 0 mm | 1.79 m/s, 329° | 155 W/m² | - |
| 1777623708 | 20.56° C | 78% | 1016.8 hPa | 0 mm | 1.79 m/s, 131° | 118 W/m² | - |
| 1777623404 | 20.56° C | 79% | 1017.1 hPa | 0 mm | 0.45 m/s, 27° | 168 W/m² | - |
| 1777623103 | 20° C | 79% | 1017.1 hPa | 0 mm | 0 m/s | 153 W/m² | - |
| 1777622796 | 20° C | 79% | 1017 hPa | 0 mm | 0.45 m/s, 355° | 119 W/m² | - |
| 1777622492 | 20.56° C | 79% | 1016.9 hPa | 0 mm | 0.89 m/s, 91° | 124 W/m² | - |
| 1777622188 | 20° C | 80% | 1016.9 hPa | 0 mm | 0 m/s | 131 W/m² | - |
| 1777621885 | 20° C | 81% | 1016.8 hPa | 0 mm | 0 m/s | 129 W/m² | - |
| 1777621580 | 20° C | 81% | 1017 hPa | 0 mm | 0.45 m/s, 64° | 140 W/m² | - |
| 1777621276 | 19.44° C | 83% | 1016.8 hPa | 0 mm | 0.45 m/s, 51° | 145 W/m² | - |
| 1777620973 | 19.44° C | 84% | 1016.9 hPa | 0 mm | 0 m/s | 111 W/m² | - |
| 1777620669 | 19.44° C | 84% | 1016.8 hPa | 0 mm | 0.45 m/s, 274° | 93 W/m² | - |
* Rain latest hour (hover to see other rain measurements)
** Current wind speed in m/s (hover to see current wind gust speed)